Regional Weather Roundup
Issued by NWS

Home | Current Version | Previous Version | Graphics & Text | Print | Product List | Glossary On
Versions: 1 2 3 4 5 6 7 8 9 10 11 12 13 14 15 16 17 18 19 20 21 22 23 24 25 26 27 28 29 30 31 32 33 34 35 36 37 38 39 40 41 42 43 44 45 46 47 48 49 50
000
ASUS43 KLMK 231202
RWRKY
KENTUCKY REGIONAL WEATHER ROUNDUP
NATIONAL WEATHER SERVICE LOUISVILLE KY
800 AM EDT WED AUG 23 2017

NOTE "FAIR" INDICATES FEW OR NO CLOUDS BELOW 12,000 FEET
WITH NO SIGNIFICANT WEATHER AND/OR OBSTRUCTIONS TO VISIBILITY.

KYZ001>023-026-027-061>063-070>075-231300-
WESTERN AND SOUTH CENTRAL KENTUCKY

CITY           SKY/WX    TMP DP  RH WIND       PRES   REMARKS
PADUCAH        PTCLDY    62  59  90 CALM      30.05R
HENDERSON      NOT AVBL
OWENSBORO      CLEAR     62  60  93 N6        30.04R
HOPKINSVILLE   CLEAR     66  66 100 NW3       30.04R
BOWLING GREEN  CLEAR     68  66  93 W3        30.03R
GLASGOW        PTCLDY   N/A N/A N/A CALM      30.02S HAZE
$$

KYZ024-025-028>034-038-045-046-053-231300-
NORTH CENTRAL KENTUCKY

CITY           SKY/WX    TMP DP  RH WIND       PRES   REMARKS
LOUISVILLE/SDF PTCLDY    67  62  84 N6        30.01R
LOUISVILLE/LOU CLEAR     65  63  93 N5        30.02R
FORT KNOX      CLEAR     63  62  97 W3        30.01R
$$

KYZ035>037-039>044-047>052-055>060-089>105-231300-
NORTHEAST KENTUCKY

CITY           SKY/WX    TMP DP  RH WIND       PRES   REMARKS
LEXINGTON      SUNNY     67  62  84 NE6       30.01R
COVINGTON      MOSUNNY   64  60  87 N5        30.01R
FRANKFORT      MOSUNNY   67  63  87 N3        30.01R
$$

KYZ054-064>069-076>088-106>120-231300-
SOUTHEAST KENTUCKY

CITY           SKY/WX    TMP DP  RH WIND       PRES   REMARKS
JACKSON        CLOUDY    69  67  93 CALM      30.00R FOG
LONDON         PTSUNNY   69  67  93 NW3       30.01R
SOMERSET       NOT AVBL
MIDDLESBORO    CLOUDY    71  71 100 CALM      30.00S
MONTICELLO     CLOUDY    70  68  93 N10       30.03R
$$





USA.gov is the U.S. government's official web portal to all federal, state and local government web resources and services.